TELSTAR 12V

Last updated on Mon Oct 14 2024 00:02:40 GMT+0000 (Coordinated Universal Time)

1 41036U 15068A 24287.42618956 -.00000120 00000+0 00000+0 0 9990 2 41036 0.0050 103.8661 0002191 97.5408 319.5326 1.00270903 32491
UTC large
Height (km)
Speed (km/s)
/
Latitude / Longitude
Inclination (degrees)
Orbital Period (minutes)
Azimuth
Elevation
Range (km)
Doppler Factor

Next 0 passes for location: London (51.5072 / 0.1276)

Sorry there are no passes over London.